Find Kosmos-2527

NORAD ID: 43508 Int'l Des: 2018-053 Owner: VVKOV/IACG Country: RU Constellation: GLONASS operational
MEOCIRCULAR

現在のビュー

3D地球を読み込み中...

About Kosmos-2527

Kosmos-2527 (NORAD 43508) is a GLONASS constellation satellite launched Jun 16, 2018 by VVKOV/IACG of RU. It operates in MEO, CIRCULAR orbit with a mass of 1450.00 kg.

Kosmos-2527について

説明を読み込み中...

次回通過

Passes for default location (London). Set your location on the main map for personalized predictions.

高度履歴

Loading altitude history...

軌道要素

1 43508U 18053A 26168.08468958 -.00000019 00000-0 00000+0 0 9998
2 43508 65.5775 73.9111 0006925 239.1203 120.8462 2.13102055 62270
Epoch: Jun 17, 2026 • Age: 54 hours

現在のステータス

高度 19140.3 km
速度 3.95 km/s
衛星直下点 -63.84°S, 18.48°W
打ち上げ日 Jun 16, 2018
運用期間 8 years
タイプ other

技術仕様

分類 Payload
質量 1450.00 kg
乾燥質量 1200.00 kg
総質量 1450.00 kg
長さ 4.00 m
直径 1.50 m
スパン 7.80 m
形状 Cyl + Ant + 2 Pan
製造者 RESH
バスタイプ Uragan
フェーズステータス In Orbit
所有者/国 VVKOV/IACG/RU

Most Searched